Weather History for Las Vegas, NM

Change the Weather History Date:

Saturday, January 19, 2013

  Actual Average Record
Temperature  
Mean Temperature 37 °F -  
Max Temperature 53 °F 45 °F 70 °F (1986)
Min Temperature 21 °F 19 °F -10 °F (1963)
Degree Days  
Heating Degree Days 28    
Moisture  
Dew Point 4 °F    
Average Humidity 29    
Maximum Humidity 53    
Minimum Humidity 10    
Precipitation  
Precipitation 0.00 in - - ()
Sea Level Pressure  
Sea Level Pressure 30.18 in    
Wind  
Wind Speed 9 mph (East)    
Max Wind Speed 15 mph    
Max Gust Speed 17 mph    
Visibility 10 miles    
Events      
Averages and records for this station are not official NWS values.
T = Trace of Precipitation, MM = Missing Value Source: NWS Daily Summary

Daily Weather History Graph

Daily Weather History Graph

Search for Another Location

Airport:

Trip Planner

Search our weather history database for the weather conditions in past years. The results will help you decide how hot, cold, wet, or windy it might be!

Date:

Astronomy

Jan. 19, 2013 Rise Set
Actual Time 7:08 AM MST 5:15 PM MST
Civil Twilight 6:40 AM MST 5:42 PM MST
Nautical Twilight 6:09 AM MST 6:13 PM MST
Astronomical Twilight 5:38 AM MST 6:44 PM MST
Moon 11:40 AM MST (1/19) 12:47 AM MST (1/19)
Length of Visible Light 11h 02m
Length of Day
10h 06m
First Quarter, 58% of the Moon is Illuminated
Jan 19
First Quarter
Jan 26
Full
Feb 3
Last Quarter
Feb 10
New
Feb 17
First Quarter

Hourly Weather History & Observations

Time (MST) Temp. Windchill Dew Point Humidity Pressure Visibility Wind Dir Wind Speed Gust Speed Precip Events Conditions
12:53 AM 21.0 °F 12.4 °F 6.1 °F 53% 30.09 in 10.0 mi NE 6.9 mph - N/A   Clear
1:53 AM 28.0 °F 20.0 °F 1.9 °F 33% 30.05 in 10.0 mi NNW 8.1 mph - N/A   Clear
2:53 AM 28.0 °F 21.7 °F 1.9 °F 33% 30.06 in 10.0 mi NNW 5.8 mph - N/A   Clear
3:53 AM 30.9 °F 22.8 °F 3.9 °F 32% 30.04 in 10.0 mi NNW 9.2 mph - N/A   Clear
4:53 AM 27.0 °F 18.0 °F 5.0 °F 39% 30.10 in 10.0 mi North 9.2 mph - N/A   Clear
5:53 AM 28.9 °F 19.2 °F 3.0 °F 33% 30.14 in 10.0 mi North 11.5 mph - N/A   Clear
6:53 AM 25.0 °F 18.1 °F 3.9 °F 41% 30.16 in 10.0 mi NE 5.8 mph - N/A   Clear
7:53 AM 27.0 °F 18.0 °F 3.0 °F 36% 30.21 in 10.0 mi North 9.2 mph - N/A   Clear
8:53 AM 37.9 °F 35.5 °F 7.0 °F 28% 30.22 in 10.0 mi ENE 3.5 mph - N/A   Clear
9:53 AM 46.9 °F - 6.1 °F 19% 30.21 in 10.0 mi North 11.5 mph - N/A   Clear
10:53 AM 51.1 °F - -0.0 °F 12% 30.20 in 10.0 mi NE 11.5 mph - N/A   Clear
11:53 AM 52.0 °F - -0.9 °F 11% 30.18 in 10.0 mi ENE 13.8 mph - N/A   Clear
12:53 PM 52.0 °F - -2.0 °F 11% 30.20 in 10.0 mi ENE 10.4 mph 17.3 mph N/A   Clear
1:53 PM 53.1 °F - -0.9 °F 11% 30.17 in 10.0 mi East 6.9 mph - N/A   Clear
2:53 PM 52.0 °F - -2.9 °F 10% 30.17 in 10.0 mi SSE 4.6 mph - N/A   Clear
3:53 PM 52.0 °F - -0.0 °F 12% 30.16 in 10.0 mi SSE 10.4 mph - N/A   Clear
4:53 PM 45.0 °F 39.7 °F 6.1 °F 20% 30.23 in 10.0 mi SSE 10.4 mph - N/A   Clear
5:53 PM 35.1 °F 26.4 °F 8.1 °F 33% 30.28 in 10.0 mi SSE 12.7 mph - N/A   Clear
6:53 PM 32.0 °F 23.0 °F 8.1 °F 37% 30.33 in 10.0 mi South 11.5 mph - N/A   Clear
7:53 PM 32.0 °F 22.1 °F 8.1 °F 37% 30.32 in 10.0 mi South 13.8 mph - N/A   Clear
8:53 PM 30.9 °F 20.7 °F 8.1 °F 38% 30.27 in 10.0 mi South 13.8 mph - N/A   Clear
9:53 PM 28.9 °F 18.2 °F 8.1 °F 41% 30.24 in 10.0 mi South 13.8 mph - N/A   Clear
10:53 PM 30.0 °F 19.1 °F 7.0 °F 38% 30.21 in 10.0 mi South 15.0 mph - N/A   Clear
11:53 PM 28.9 °F 17.7 °F 7.0 °F 40% 30.19 in 10.0 mi South 15.0 mph - N/A   Clear